{"data":{"norad_id":61246,"intl_designator":"2024-175D","name":"STARLINK-11308 [DTC]","alt_names":[],"object_type":"PAYLOAD","status":"ACTIVE","operator":null,"country":"US","launch_date":"2024-09-25","launch_site_code":"AFWTR","launch_vehicle":null,"mission":null,"orbit_class":"UNKNOWN","rcs_meters":null,"size_class":null,"mass_kg":null,"dimensions":null,"purposes":["comms"],"wikipedia_slug":null,"has_3d_model":false,"image_url":null,"decayed_at":null,"tle_current":{"epoch":"2026-09-21T21:25:37.461216Z","epoch_age_seconds":71790,"freshness":"FRESH","line1":"1 61246U 24175D   26264.89279469 -.00000131  00000+0  37800-5 0  9990","line2":"2 61246  53.1598 168.9647 0001101  79.2111 280.9031 15.69705973114187","mean_motion":15.69705973,"eccentricity":0.0001101,"inclination_deg":53.1598,"raan_deg":168.9647,"arg_perigee_deg":79.2111,"mean_anomaly_deg":280.9031,"bstar":3.78e-6,"rev_number":11418,"period_min":91.736925562428,"perigee_km":358.99643410928,"apogee_km":360.48011424465,"semimajor_km":6737.875274177,"source":"CELESTRAK","updated_at":"2026-09-22T09:00:49.347769Z"}}}